Location: *
(55.5817°S, 142.4781°W)
Time: 07:45:43
(UTC+00:00)

Cosmos 1455 - Pass Details

Date: 29 April 2025
Orbit: 339 x 350 km, 82.5° (Epoch: 23 May)

Event Time Altitude Azimuth Distance (km) Brightness Sun altitude
Exits shadow 14:05:19 11° 162° (SSE) 1,269 4.5 -23.6°
Drops below altitude 10° 14:05:29 10° 162° (SSE) 1,342 4.6 -23.6°
Sets 14:07:28 0° 165° (SSE) 2,197 5.7 -23.3°
